Location: M�nchen
(48.1404°N, 11.6043°E)
Time: 18:21:48
(UTC+02:00)

ISS - Visible Passes

Search period start: 22 July 2018 00:00
Search period end: 01 August 2018 00:00
Orbit: 402 x 408 km, 51.6° (Epoch: 22 July)

Date Brightness Start Highest point End Pass type
(mag) Time Alt. Az. Time Alt. Az. Time Alt. Az.
22 Jul -2.6 00:31:33 10° W 00:34:43 44° N 00:37:54 10° ENE visible
22 Jul -3.3 02:08:15 10° WNW 02:11:32 60° NNE 02:14:49 10° E visible
22 Jul -3.3 03:44:53 10° WNW 03:47:56 35° SW 03:50:59 10° SSE visible
22 Jul -3.7 22:02:46 10° SW 22:05:58 53° SSE 22:09:11 10° ENE visible
22 Jul -2.9 23:39:18 10° W 23:42:30 50° N 23:45:44 10° ENE visible
23 Jul -2.9 01:16:07 10° WNW 01:19:20 48° N 01:20:52 26° ENE visible
23 Jul -1.6 02:52:40 10° WNW 02:53:22 15° WNW 02:53:22 15° WNW visible
23 Jul -3.3 22:47:03 10° W 22:50:19 62° NNW 22:53:34 10° ENE visible
24 Jul -2.6 00:23:56 10° WNW 00:27:06 43° N 00:29:10 19° ENE visible
24 Jul -1.8 02:00:30 10° WNW 02:01:46 21° WNW 02:01:46 21° WNW visible
24 Jul -3.8 21:54:51 10° WSW 21:58:08 86° NNW 22:01:25 10° ENE visible
24 Jul -2.6 23:31:41 10° WNW 23:34:51 43° N 23:38:02 10° ENE visible
25 Jul -2.8 01:08:21 10° WNW 01:10:47 44° NW 01:10:47 44° NW visible
25 Jul -2.8 22:39:24 10° W 22:42:36 47° N 22:45:48 10° ENE visible
26 Jul -3.1 00:16:11 10° WNW 00:19:26 52° NNE 00:20:01 44° NE visible
26 Jul -3.1 21:47:07 10° W 21:50:21 56° NNW 21:53:36 10° ENE visible
26 Jul -2.7 23:23:59 10° WNW 23:27:10 45° N 23:29:20 18° ENE visible
27 Jul -1.9 01:00:32 10° WNW 01:01:57 23° WNW 01:01:57 23° WNW visible
27 Jul -2.6 22:31:43 10° WNW 22:34:52 43° N 22:38:03 10° ENE visible
28 Jul -3.5 00:08:20 10° WNW 00:11:19 66° NNW 00:11:19 66° NNW visible
28 Jul -2.7 21:39:24 10° W 21:42:34 45° N 21:45:46 10° ENE visible
28 Jul -3.3 23:16:09 10° WNW 23:19:24 56° NNE 23:20:44 30° E visible
29 Jul -1.2 00:52:43 10° WNW 00:53:21 14° W 00:53:21 14° W visible
29 Jul -2.9 22:23:55 10° WNW 22:27:06 46° N 22:30:09 11° E visible
30 Jul -2.9 00:00:26 10° WNW 00:02:47 41° W 00:02:47 41° W visible
30 Jul -2.7 21:31:37 10° WNW 21:34:47 43° N 21:37:57 10° ENE visible
30 Jul -3.9 23:08:12 10° WNW 23:11:30 84° NNE 23:12:14 51° ESE visible
31 Jul -3.4 22:15:59 10° WNW 22:19:15 61° NNE 22:21:42 16° E visible
31 Jul -2.1 23:52:36 10° W 23:54:21 24° W 23:54:21 24° W visible
